contact:dominique.lefevre@mio.osupytheas.fr, maurice.libes@osupytheas.fr, didier.mallarino@osupytheas.fr
Project:EMSO http://www.emso-fr.org/EMSO-France
Depth: 2436.0 m
Title:EMSO Ligure Ouest : Data MII capteur MICROCAT
DateTime_Computer,Latitude,Longitude,Temperature,Conductivity,Pressure,DateTime_Instrument
DateTime_Computer,Latitude,Longitude,degC,S m-1,dbar,DateTime_Instrument
2021-04-12T00:00:41Z,42.805,6.029,13.2980,4.59984,2469.363,2021-4-12T02:01:50Z
2021-04-12T00:03:44Z,42.805,6.029,13.2979,4.59988,2469.34,2021-4-12T02:04:53Z
2021-04-12T00:06:48Z,42.805,6.029,13.2977,4.59988,2469.34,2021-4-12T02:07:56Z
2021-04-12T00:09:51Z,42.805,6.029,13.2979,4.59984,2469.316,2021-4-12T02:10:59Z
2021-04-12T00:12:54Z,42.805,6.029,13.2980,4.59989,2469.316,2021-4-12T02:14:02Z
2021-04-12T00:15:57Z,42.805,6.029,13.2979,4.59986,2469.316,2021-4-12T02:17:05Z
2021-04-12T00:19:00Z,42.805,6.029,13.2979,4.59984,2469.316,2021-4-12T02:20:08Z
2021-04-12T00:22:03Z,42.805,6.029,13.2978,4.59986,2469.354,2021-4-12T02:23:11Z
2021-04-12T00:25:06Z,42.805,6.029,13.2979,4.59985,2469.377,2021-4-12T02:26:15Z
2021-04-12T00:28:09Z,42.805,6.029,13.2982,4.59985,2469.307,2021-4-12T02:29:18Z
2021-04-12T00:31:13Z,42.805,6.029,13.2979,4.59984,2469.316,2021-4-12T02:32:21Z
2021-04-12T00:34:16Z,42.805,6.029,13.2983,4.59985,2469.316,2021-4-12T02:35:24Z
2021-04-12T00:37:19Z,42.805,6.029,13.2983,4.59987,2469.293,2021-4-12T02:38:27Z
2021-04-12T00:40:22Z,42.805,6.029,13.2982,4.59984,2469.316,2021-4-12T02:41:30Z
2021-04-12T00:43:25Z,42.805,6.029,13.2976,4.59985,2469.307,2021-4-12T02:44:33Z
2021-04-12T00:46:28Z,42.805,6.029,13.2979,4.59984,2469.293,2021-4-12T02:47:36Z
2021-04-12T00:49:31Z,42.805,6.029,13.2978,4.59984,2469.293,2021-4-12T02:50:40Z
2021-04-12T00:52:34Z,42.805,6.029,13.2982,4.59985,2469.316,2021-4-12T02:53:43Z
2021-04-12T00:55:38Z,42.805,6.029,13.2983,4.59983,2469.27,2021-4-12T02:56:46Z
2021-04-12T00:58:41Z,42.805,6.029,13.2982,4.59984,2469.33,2021-4-12T02:59:49Z
2021-04-12T01:01:44Z,42.805,6.029,13.2978,4.59984,2469.316,2021-4-12T03:02:52Z
2021-04-12T01:04:47Z,42.805,6.029,13.2982,4.59983,2469.316,2021-4-12T03:05:55Z
2021-04-12T01:07:50Z,42.805,6.029,13.2981,4.59987,2469.354,2021-4-12T03:08:58Z
2021-04-12T01:10:53Z,42.805,6.029,13.2980,4.59983,2469.279,2021-4-12T03:12:01Z
2021-04-12T01:13:56Z,42.805,6.029,13.2986,4.59985,2469.316,2021-4-12T03:15:05Z
2021-04-12T01:16:59Z,42.805,6.029,13.2980,4.59985,2469.33,2021-4-12T03:18:08Z
2021-04-12T01:20:03Z,42.805,6.029,13.2979,4.59984,2469.33,2021-4-12T03:21:11Z
2021-04-12T01:23:06Z,42.805,6.029,13.2979,4.59984,2469.33,2021-4-12T03:24:14Z
2021-04-12T01:26:09Z,42.805,6.029,13.2981,4.59985,2469.293,2021-4-12T03:27:17Z
2021-04-12T01:29:12Z,42.805,6.029,13.2980,4.59984,2469.316,2021-4-12T03:30:20Z
2021-04-12T01:32:15Z,42.805,6.029,13.2978,4.59984,2469.307,2021-4-12T03:33:23Z
2021-04-12T01:35:18Z,42.805,6.029,13.2981,4.59984,2469.284,2021-4-12T03:36:26Z
2021-04-12T01:38:21Z,42.805,6.029,13.2984,4.59986,2469.27,2021-4-12T03:39:30Z
2021-04-12T01:41:24Z,42.805,6.029,13.2983,4.59984,2469.293,2021-4-12T03:42:33Z
2021-04-12T01:44:27Z,42.805,6.029,13.2983,4.59985,2469.293,2021-4-12T03:45:36Z
2021-04-12T01:47:31Z,42.805,6.029,13.2982,4.59985,2469.293,2021-4-12T03:48:39Z
2021-04-12T01:50:34Z,42.805,6.029,13.2983,4.59985,2469.26,2021-4-12T03:51:42Z
2021-04-12T01:53:37Z,42.805,6.029,13.2984,4.59985,2469.33,2021-4-12T03:54:45Z
2021-04-12T01:56:40Z,42.805,6.029,13.2976,4.59986,2469.293,2021-4-12T03:57:48Z
2021-04-12T01:59:43Z,42.805,6.029,13.2983,4.59988,2469.307,2021-4-12T04:00:51Z
2021-04-12T02:02:46Z,42.805,6.029,13.2984,4.59988,2469.26,2021-4-12T04:03:55Z
2021-04-12T02:05:49Z,42.805,6.029,13.2983,4.59986,2469.26,2021-4-12T04:06:58Z
2021-04-12T02:08:52Z,42.805,6.029,13.2984,4.59986,2469.26,2021-4-12T04:10:01Z
2021-04-12T02:11:56Z,42.805,6.029,13.2980,4.59986,2469.246,2021-4-12T04:13:04Z
2021-04-12T02:14:59Z,42.805,6.029,13.2983,4.59986,2469.27,2021-4-12T04:16:07Z
2021-04-12T02:18:02Z,42.805,6.029,13.2989,4.59986,2469.27,2021-4-12T04:19:10Z
2021-04-12T02:21:05Z,42.805,6.029,13.2985,4.59986,2469.27,2021-4-12T04:22:13Z
2021-04-12T02:24:08Z,42.805,6.029,13.2983,4.59986,2469.284,2021-4-12T04:25:16Z
2021-04-12T02:27:11Z,42.805,6.029,13.2980,4.59986,2469.246,2021-4-12T04:28:20Z
2021-04-12T02:30:14Z,42.805,6.029,13.2980,4.59986,2469.293,2021-4-12T04:31:23Z
2021-04-12T02:33:17Z,42.805,6.029,13.2982,4.59987,2469.316,2021-4-12T04:34:26Z
2021-04-12T02:36:21Z,42.805,6.029,13.2983,4.59988,2469.316,2021-4-12T04:37:29Z
2021-04-12T02:39:24Z,42.805,6.029,13.2983,4.59986,2469.284,2021-4-12T04:40:32Z
2021-04-12T02:42:27Z,42.805,6.029,13.2982,4.59989,2469.284,2021-4-12T04:43:35Z
2021-04-12T02:45:30Z,42.805,6.029,13.2981,4.59986,2469.307,2021-4-12T04:46:38Z
2021-04-12T02:48:33Z,42.805,6.029,13.2984,4.59987,2469.316,2021-4-12T04:49:41Z
2021-04-12T02:51:36Z,42.805,6.029,13.2982,4.59986,2469.316,2021-4-12T04:52:45Z
2021-04-12T02:54:39Z,42.805,6.029,13.2983,4.59988,2469.354,2021-4-12T04:55:48Z
2021-04-12T02:57:42Z,42.805,6.029,13.2984,4.59989,2469.354,2021-4-12T04:58:51Z
2021-04-12T03:00:46Z,42.805,6.029,13.2982,4.59985,2469.293,2021-4-12T05:01:54Z
2021-04-12T03:03:49Z,42.805,6.029,13.2983,4.59986,2469.293,2021-4-12T05:04:57Z
2021-04-12T03:06:52Z,42.805,6.029,13.2982,4.59986,2469.307,2021-4-12T05:08:00Z
2021-04-12T03:09:55Z,42.805,6.029,13.2983,4.59986,2469.293,2021-4-12T05:11:03Z
2021-04-12T03:12:58Z,42.805,6.029,13.2982,4.59987,2469.316,2021-4-12T05:14:06Z
2021-04-12T03:16:01Z,42.805,6.029,13.2981,4.59986,2469.316,2021-4-12T05:17:10Z
2021-04-12T03:19:04Z,42.805,6.029,13.2980,4.59986,2469.316,2021-4-12T05:20:13Z
2021-04-12T03:22:07Z,42.805,6.029,13.2983,4.59985,2469.33,2021-4-12T05:23:16Z
2021-04-12T03:25:11Z,42.805,6.029,13.2982,4.59986,2469.34,2021-4-12T05:26:19Z
2021-04-12T03:28:14Z,42.805,6.029,13.2982,4.59986,2469.34,2021-4-12T05:29:22Z
2021-04-12T03:31:17Z,42.805,6.029,13.2984,4.59985,2469.326,2021-4-12T05:32:25Z
2021-04-12T03:34:20Z,42.805,6.029,13.2982,4.59986,2469.293,2021-4-12T05:35:28Z
2021-04-12T03:37:23Z,42.805,6.029,13.2982,4.59987,2469.354,2021-4-12T05:38:31Z
2021-04-12T03:40:26Z,42.805,6.029,13.2979,4.59986,2469.316,2021-4-12T05:41:35Z
2021-04-12T03:43:29Z,42.805,6.029,13.2983,4.59986,2469.34,2021-4-12T05:44:38Z
2021-04-12T03:46:32Z,42.805,6.029,13.2987,4.59986,2469.34,2021-4-12T05:47:41Z
2021-04-12T03:49:36Z,42.805,6.029,13.2983,4.59986,2469.386,2021-4-12T05:50:44Z
2021-04-12T03:52:39Z,42.805,6.029,13.2982,4.59986,2469.41,2021-4-12T05:53:47Z
2021-04-12T03:55:42Z,42.805,6.029,13.2979,4.59985,2469.41,2021-4-12T05:56:50Z
2021-04-12T03:58:45Z,42.805,6.029,13.2984,4.59986,2469.386,2021-4-12T05:59:53Z
2021-04-12T04:01:48Z,42.805,6.029,13.2982,4.59987,2469.447,2021-4-12T06:02:56Z
2021-04-12T04:04:51Z,42.805,6.029,13.2981,4.59986,2469.433,2021-4-12T06:06:00Z
2021-04-12T04:07:54Z,42.805,6.029,13.2980,4.59989,2469.386,2021-4-12T06:09:03Z
2021-04-12T04:10:57Z,42.805,6.029,13.2982,4.59987,2469.447,2021-4-12T06:12:06Z
2021-04-12T04:14:01Z,42.805,6.029,13.2978,4.59986,2469.424,2021-4-12T06:15:09Z
2021-04-12T04:17:04Z,42.805,6.029,13.2983,4.59986,2469.494,2021-4-12T06:18:12Z
2021-04-12T04:20:07Z,42.805,6.029,13.2981,4.59986,2469.494,2021-4-12T06:21:15Z
2021-04-12T04:23:10Z,42.805,6.029,13.2983,4.59986,2469.443,2021-4-12T06:24:18Z
2021-04-12T04:26:13Z,42.805,6.029,13.2982,4.59986,2469.48,2021-4-12T06:27:21Z
2021-04-12T04:29:16Z,42.805,6.029,13.2983,4.59986,2469.456,2021-4-12T06:30:25Z
2021-04-12T04:32:19Z,42.805,6.029,13.2982,4.59986,2469.466,2021-4-12T06:33:28Z
2021-04-12T04:35:22Z,42.805,6.029,13.2984,4.59986,2469.503,2021-4-12T06:36:31Z
2021-04-12T04:38:26Z,42.805,6.029,13.2984,4.59986,2469.48,2021-4-12T06:39:34Z
2021-04-12T04:41:29Z,42.805,6.029,13.2981,4.59986,2469.526,2021-4-12T06:42:37Z
2021-04-12T04:44:32Z,42.805,6.029,13.2983,4.59987,2469.48,2021-4-12T06:45:40Z
2021-04-12T04:47:35Z,42.805,6.029,13.2982,4.59988,2469.517,2021-4-12T06:48:43Z
2021-04-12T04:50:38Z,42.805,6.029,13.2983,4.59988,2469.526,2021-4-12T06:51:46Z
2021-04-12T04:53:41Z,42.805,6.029,13.2983,4.59985,2469.503,2021-4-12T06:54:50Z
2021-04-12T04:56:44Z,42.805,6.029,13.2982,4.59986,2469.494,2021-4-12T06:57:53Z
2021-04-12T04:59:47Z,42.805,6.029,13.2979,4.59987,2469.573,2021-4-12T07:00:56Z
2021-04-12T05:02:51Z,42.805,6.029,13.2983,4.59987,2469.526,2021-4-12T07:03:59Z
2021-04-12T05:05:54Z,42.805,6.029,13.2984,4.59988,2469.503,2021-4-12T07:07:02Z
2021-04-12T05:08:57Z,42.805,6.029,13.2982,4.59987,2469.526,2021-4-12T07:10:05Z
2021-04-12T05:12:00Z,42.805,6.029,13.2980,4.59987,2469.526,2021-4-12T07:13:08Z
2021-04-12T05:15:03Z,42.805,6.029,13.2983,4.59987,2469.54,2021-4-12T07:16:11Z
2021-04-12T05:18:06Z,42.805,6.029,13.2981,4.59988,2469.55,2021-4-12T07:19:14Z
2021-04-12T05:21:09Z,42.805,6.029,13.2983,4.59986,2469.54,2021-4-12T07:22:18Z
2021-04-12T05:24:12Z,42.805,6.029,13.2985,4.59987,2469.55,2021-4-12T07:25:21Z
2021-04-12T05:27:16Z,42.805,6.029,13.2982,4.59988,2469.55,2021-4-12T07:28:24Z
2021-04-12T05:30:19Z,42.805,6.029,13.2982,4.59988,2469.526,2021-4-12T07:31:27Z
2021-04-12T05:33:22Z,42.805,6.029,13.2981,4.59991,2469.573,2021-4-12T07:34:30Z
2021-04-12T05:36:25Z,42.805,6.029,13.2980,4.59991,2469.587,2021-4-12T07:37:33Z
2021-04-12T05:39:28Z,42.805,6.029,13.2983,4.59990,2469.55,2021-4-12T07:40:36Z
2021-04-12T05:42:31Z,42.805,6.029,13.2982,4.59987,2469.573,2021-4-12T07:43:39Z
2021-04-12T05:45:34Z,42.805,6.029,13.2985,4.59987,2469.563,2021-4-12T07:46:43Z
2021-04-12T05:48:37Z,42.805,6.029,13.2982,4.59987,2469.573,2021-4-12T07:49:46Z
2021-04-12T05:51:41Z,42.805,6.029,13.2982,4.59987,2469.597,2021-4-12T07:52:49Z
2021-04-12T05:54:44Z,42.805,6.029,13.2982,4.59986,2469.587,2021-4-12T07:55:52Z
2021-04-12T05:57:47Z,42.805,6.029,13.2983,4.59989,2469.573,2021-4-12T07:58:55Z
2021-04-12T06:00:50Z,42.805,6.029,13.2981,4.59988,2469.597,2021-4-12T08:01:58Z
2021-04-12T06:03:53Z,42.805,6.029,13.2984,4.59988,2469.573,2021-4-12T08:05:01Z
2021-04-12T06:06:56Z,42.805,6.029,13.2986,4.59990,2469.727,2021-4-12T08:08:04Z
2021-04-12T06:09:59Z,42.805,6.029,13.2979,4.59988,2469.783,2021-4-12T08:11:08Z
2021-04-12T06:13:02Z,42.805,6.029,13.2983,4.59988,2469.76,2021-4-12T08:14:11Z
2021-04-12T06:16:06Z,42.805,6.029,13.2982,4.59989,2469.797,2021-4-12T08:17:14Z
2021-04-12T06:19:09Z,42.805,6.029,13.2988,4.60001,2469.76,2021-4-12T08:20:17Z
2021-04-12T06:22:12Z,42.805,6.029,13.3010,4.60033,2469.713,2021-4-12T08:23:20Z
2021-04-12T06:25:15Z,42.805,6.029,13.2991,4.59999,2469.75,2021-4-12T08:26:23Z
2021-04-12T06:28:18Z,42.805,6.029,13.2982,4.59991,2469.737,2021-4-12T08:29:26Z
2021-04-12T06:31:21Z,42.805,6.029,13.2997,4.60011,2469.773,2021-4-12T08:32:29Z
2021-04-12T06:34:24Z,42.805,6.029,13.2994,4.60021,2469.75,2021-4-12T08:35:33Z
2021-04-12T06:37:27Z,42.805,6.029,13.2990,4.60010,2469.773,2021-4-12T08:38:36Z
2021-04-12T06:40:31Z,42.805,6.029,13.2987,4.60003,2469.783,2021-4-12T08:41:39Z
2021-04-12T06:43:34Z,42.805,6.029,13.3004,4.60023,2469.821,2021-4-12T08:44:42Z
2021-04-12T06:46:37Z,42.805,6.029,13.2997,4.60016,2469.853,2021-4-12T08:47:45Z
2021-04-12T06:49:40Z,42.805,6.029,13.3001,4.60014,2469.844,2021-4-12T08:50:48Z
2021-04-12T06:52:43Z,42.805,6.029,13.3006,4.60027,2469.89,2021-4-12T08:53:51Z
2021-04-12T06:55:46Z,42.805,6.029,13.3010,4.60014,2469.876,2021-4-12T08:56:54Z
2021-04-12T06:58:49Z,42.805,6.029,13.3016,4.60043,2469.923,2021-4-12T08:59:58Z
2021-04-12T07:01:52Z,42.805,6.029,13.2995,4.60031,2469.89,2021-4-12T09:03:01Z
2021-04-12T07:04:55Z,42.805,6.029,13.2995,4.60000,2469.923,2021-4-12T09:06:04Z
2021-04-12T07:07:59Z,42.805,6.029,13.2990,4.60011,2469.993,2021-4-12T09:09:07Z
2021-04-12T07:11:02Z,42.805,6.029,13.2984,4.59996,2469.993,2021-4-12T09:12:10Z
2021-04-12T07:14:05Z,42.805,6.029,13.2990,4.59995,2470.017,2021-4-12T09:15:13Z
2021-04-12T07:17:08Z,42.805,6.029,13.3008,4.60011,2470.007,2021-4-12T09:18:16Z
2021-04-12T07:20:11Z,42.805,6.029,13.3005,4.59997,2470.077,2021-4-12T09:21:19Z
2021-04-12T07:23:14Z,42.805,6.029,13.3001,4.60025,2470.063,2021-4-12T09:24:23Z
2021-04-12T07:26:17Z,42.805,6.029,13.2990,4.59996,2470.077,2021-4-12T09:27:26Z
2021-04-12T07:29:20Z,42.805,6.029,13.2982,4.59997,2470.087,2021-4-12T09:30:29Z
2021-04-12T07:32:24Z,42.805,6.029,13.2988,4.60008,2470.087,2021-4-12T09:33:32Z
2021-04-12T07:35:27Z,42.805,6.029,13.2990,4.59996,2470.124,2021-4-12T09:36:35Z
2021-04-12T07:38:30Z,42.805,6.029,13.2996,4.60007,2470.156,2021-4-12T09:39:38Z
2021-04-12T07:41:33Z,42.805,6.029,13.2997,4.60019,2470.171,2021-4-12T09:42:41Z
2021-04-12T07:44:36Z,42.805,6.029,13.3034,4.60016,2470.194,2021-4-12T09:45:44Z
2021-04-12T07:47:39Z,42.805,6.029,13.3014,4.60016,2470.143,2021-4-12T09:48:48Z
2021-04-12T07:50:42Z,42.805,6.029,13.3015,4.60055,2470.18,2021-4-12T09:51:51Z
2021-04-12T07:53:45Z,42.805,6.029,13.3036,4.60017,2470.217,2021-4-12T09:54:54Z
2021-04-12T07:56:49Z,42.805,6.029,13.3019,4.60024,2470.203,2021-4-12T09:57:57Z
2021-04-12T07:59:52Z,42.805,6.029,13.3024,4.60045,2470.227,2021-4-12T10:01:00Z
2021-04-12T08:02:55Z,42.805,6.029,13.3026,4.60033,2470.287,2021-4-12T10:04:03Z
2021-04-12T08:05:58Z,42.805,6.029,13.3027,4.60050,2470.25,2021-4-12T10:07:06Z
2021-04-12T08:09:01Z,42.805,6.029,13.3015,4.60059,2470.287,2021-4-12T10:10:09Z
2021-04-12T08:12:04Z,42.805,6.029,13.3011,4.60046,2470.31,2021-4-12T10:13:13Z
2021-04-12T08:15:07Z,42.805,6.029,13.3018,4.60042,2470.31,2021-4-12T10:16:16Z
2021-04-12T08:18:10Z,42.805,6.029,13.2985,4.60016,2470.334,2021-4-12T10:19:19Z
2021-04-12T08:21:14Z,42.805,6.029,13.2994,4.60015,2470.32,2021-4-12T10:22:22Z
2021-04-12T08:24:17Z,42.805,6.029,13.3007,4.60018,2470.31,2021-4-12T10:25:25Z
2021-04-12T08:27:20Z,42.805,6.029,13.3021,4.60026,2470.32,2021-4-12T10:28:28Z
2021-04-12T08:30:23Z,42.805,6.029,13.2997,4.60014,2470.334,2021-4-12T10:31:31Z
2021-04-12T08:33:26Z,42.805,6.029,13.3002,4.60021,2470.334,2021-4-12T10:34:34Z
2021-04-12T08:36:29Z,42.805,6.029,13.2985,4.60003,2470.366,2021-4-12T10:37:38Z
2021-04-12T08:39:32Z,42.805,6.029,13.2980,4.60013,2470.357,2021-4-12T10:40:41Z
2021-04-12T08:42:36Z,42.805,6.029,13.2985,4.60018,2470.38,2021-4-12T10:43:44Z
2021-04-12T08:45:39Z,42.805,6.029,13.2984,4.60013,2470.32,2021-4-12T10:46:47Z
2021-04-12T08:48:42Z,42.805,6.029,13.2988,4.59997,2470.357,2021-4-12T10:49:50Z
2021-04-12T08:51:45Z,42.805,6.029,13.2985,4.60013,2470.38,2021-4-12T10:52:53Z
2021-04-12T08:54:48Z,42.805,6.029,13.2987,4.60031,2470.39,2021-4-12T10:55:56Z
2021-04-12T08:57:51Z,42.805,6.029,13.3004,4.60011,2470.366,2021-4-12T10:59:00Z
2021-04-12T09:00:54Z,42.805,6.029,13.3007,4.59994,2470.39,2021-4-12T11:02:03Z
2021-04-12T09:03:57Z,42.805,6.029,13.2998,4.59992,2470.404,2021-4-12T11:05:06Z
2021-04-12T09:07:01Z,42.805,6.029,13.2998,4.59994,2470.39,2021-4-12T11:08:09Z
2021-04-12T09:10:04Z,42.805,6.029,13.3003,4.59988,2470.413,2021-4-12T11:11:12Z
2021-04-12T09:13:07Z,42.805,6.029,13.2990,4.59993,2470.404,2021-4-12T11:14:15Z
2021-04-12T09:16:10Z,42.805,6.029,13.2994,4.60011,2470.437,2021-4-12T11:17:18Z
2021-04-12T09:19:13Z,42.805,6.029,13.2991,4.60049,2470.437,2021-4-12T11:20:21Z
2021-04-12T09:22:16Z,42.805,6.029,13.3006,4.60043,2470.413,2021-4-12T11:23:25Z
2021-04-12T09:25:19Z,42.805,6.029,13.2986,4.60107,2470.413,2021-4-12T11:26:28Z
2021-04-12T09:28:22Z,42.805,6.029,13.2986,4.60084,2470.413,2021-4-12T11:29:31Z
2021-04-12T09:31:26Z,42.805,6.029,13.2986,4.60049,2470.437,2021-4-12T11:32:34Z
2021-04-12T09:34:29Z,42.805,6.029,13.2984,4.60041,2470.437,2021-4-12T11:35:37Z
2021-04-12T09:37:32Z,42.805,6.029,13.2986,4.60027,2470.46,2021-4-12T11:38:40Z
2021-04-12T09:40:35Z,42.805,6.029,13.2986,4.60021,2470.427,2021-4-12T11:41:43Z
2021-04-12T09:43:38Z,42.805,6.029,13.2982,4.60028,2470.474,2021-4-12T11:44:46Z
2021-04-12T09:46:41Z,42.805,6.029,13.2980,4.60008,2470.427,2021-4-12T11:47:50Z
2021-04-12T09:49:44Z,42.805,6.029,13.2983,4.60015,2470.46,2021-4-12T11:50:53Z
2021-04-12T09:52:47Z,42.805,6.029,13.2982,4.60015,2470.437,2021-4-12T11:53:56Z
2021-04-12T09:55:51Z,42.805,6.029,13.2982,4.60014,2470.474,2021-4-12T11:56:59Z
2021-04-12T09:58:54Z,42.805,6.029,13.2979,4.60005,2470.45,2021-4-12T12:00:02Z
2021-04-12T10:01:57Z,42.805,6.029,13.2976,4.59999,2470.45,2021-4-12T12:03:05Z
2021-04-12T10:05:00Z,42.805,6.029,13.2977,4.60002,2470.46,2021-4-12T12:06:08Z
2021-04-12T10:08:03Z,42.805,6.029,13.2982,4.59995,2470.437,2021-4-12T12:09:11Z
2021-04-12T10:11:06Z,42.805,6.029,13.2983,4.59997,2470.483,2021-4-12T12:12:15Z
2021-04-12T10:14:09Z,42.805,6.029,13.2982,4.59994,2470.45,2021-4-12T12:15:18Z
2021-04-12T10:17:12Z,42.805,6.029,13.2982,4.59994,2470.437,2021-4-12T12:18:21Z
2021-04-12T10:20:16Z,42.805,6.029,13.2983,4.59993,2470.437,2021-4-12T12:21:24Z
2021-04-12T10:23:19Z,42.805,6.029,13.2979,4.59993,2470.46,2021-4-12T12:24:27Z
2021-04-12T10:26:22Z,42.805,6.029,13.2981,4.59994,2470.437,2021-4-12T12:27:30Z
2021-04-12T10:29:25Z,42.805,6.029,13.2979,4.59993,2470.437,2021-4-12T12:30:33Z
2021-04-12T10:32:28Z,42.805,6.029,13.2982,4.59995,2470.437,2021-4-12T12:33:36Z
2021-04-12T10:35:31Z,42.805,6.029,13.2979,4.59989,2470.45,2021-4-12T12:36:40Z
2021-04-12T10:38:34Z,42.805,6.029,13.2983,4.59990,2470.474,2021-4-12T12:39:43Z
2021-04-12T10:41:38Z,42.805,6.029,13.2978,4.59994,2470.413,2021-4-12T12:42:46Z
2021-04-12T10:44:41Z,42.805,6.029,13.2984,4.59993,2470.46,2021-4-12T12:45:49Z
2021-04-12T10:47:44Z,42.805,6.029,13.2978,4.59990,2470.45,2021-4-12T12:48:52Z
2021-04-12T10:50:47Z,42.805,6.029,13.2984,4.59989,2470.437,2021-4-12T12:51:55Z
2021-04-12T10:53:50Z,42.805,6.029,13.2983,4.59989,2470.413,2021-4-12T12:54:58Z
2021-04-12T10:56:53Z,42.805,6.029,13.2982,4.59991,2470.413,2021-4-12T12:58:02Z
2021-04-12T10:59:56Z,42.805,6.029,13.2981,4.59990,2470.413,2021-4-12T13:01:05Z
2021-04-12T11:02:59Z,42.805,6.029,13.2977,4.59991,2470.474,2021-4-12T13:04:08Z
2021-04-12T11:06:02Z,42.805,6.029,13.2984,4.59992,2470.427,2021-4-12T13:07:11Z
2021-04-12T11:09:06Z,42.805,6.029,13.2983,4.59989,2470.39,2021-4-12T13:10:14Z
2021-04-12T11:12:09Z,42.805,6.029,13.2982,4.59988,2470.45,2021-4-12T13:13:17Z
2021-04-12T11:15:12Z,42.805,6.029,13.2982,4.59989,2470.413,2021-4-12T13:16:20Z
2021-04-12T11:18:15Z,42.805,6.029,13.2982,4.59991,2470.437,2021-4-12T13:19:23Z
2021-04-12T11:21:18Z,42.805,6.029,13.2986,4.59991,2470.427,2021-4-12T13:22:26Z
2021-04-12T11:24:21Z,42.805,6.029,13.2984,4.59992,2470.427,2021-4-12T13:25:30Z
2021-04-12T11:27:24Z,42.805,6.029,13.2983,4.59992,2470.437,2021-4-12T13:28:33Z
2021-04-12T11:30:28Z,42.805,6.029,13.2982,4.59989,2470.413,2021-4-12T13:31:36Z
2021-04-12T11:33:31Z,42.805,6.029,13.2983,4.59991,2470.413,2021-4-12T13:34:39Z
2021-04-12T11:36:34Z,42.805,6.029,13.2983,4.59989,2470.45,2021-4-12T13:37:42Z
2021-04-12T11:39:37Z,42.805,6.029,13.2980,4.59989,2470.437,2021-4-12T13:40:45Z
2021-04-12T11:42:40Z,42.805,6.029,13.2983,4.59989,2470.39,2021-4-12T13:43:48Z
2021-04-12T11:45:43Z,42.805,6.029,13.2979,4.59989,2470.404,2021-4-12T13:46:52Z
2021-04-12T11:48:46Z,42.805,6.029,13.2979,4.59986,2470.39,2021-4-12T13:49:55Z
2021-04-12T11:51:49Z,42.805,6.029,13.2981,4.59987,2470.39,2021-4-12T13:52:58Z
2021-04-12T11:54:53Z,42.805,6.029,13.2984,4.59989,2470.39,2021-4-12T13:56:01Z
2021-04-12T11:57:56Z,42.805,6.029,13.2982,4.59987,2470.437,2021-4-12T13:59:04Z
2021-04-12T12:00:59Z,42.805,6.029,13.2982,4.59989,2470.413,2021-4-12T14:02:07Z
2021-04-12T12:04:02Z,42.805,6.029,13.2983,4.59987,2470.404,2021-4-12T14:05:10Z
2021-04-12T12:07:05Z,42.805,6.029,13.2978,4.59989,2470.39,2021-4-12T14:08:13Z
2021-04-12T12:10:08Z,42.805,6.029,13.2985,4.59988,2470.404,2021-4-12T14:11:17Z
2021-04-12T12:13:11Z,42.805,6.029,13.2984,4.59986,2470.366,2021-4-12T14:14:20Z
2021-04-12T12:16:14Z,42.805,6.029,13.2981,4.59986,2470.39,2021-4-12T14:17:23Z
2021-04-12T12:19:18Z,42.805,6.029,13.2982,4.59990,2470.334,2021-4-12T14:20:26Z
2021-04-12T12:22:21Z,42.805,6.029,13.2981,4.59986,2470.343,2021-4-12T14:23:29Z
2021-04-12T12:25:24Z,42.805,6.029,13.2982,4.59987,2470.39,2021-4-12T14:26:32Z
2021-04-12T12:28:27Z,42.805,6.029,13.2982,4.59988,2470.366,2021-4-12T14:29:35Z
2021-04-12T12:31:30Z,42.805,6.029,13.2981,4.59986,2470.343,2021-4-12T14:32:39Z
2021-04-12T12:34:33Z,42.805,6.029,13.2983,4.59987,2470.334,2021-4-12T14:35:42Z
2021-04-12T12:37:36Z,42.805,6.029,13.2981,4.59986,2470.32,2021-4-12T14:38:45Z
2021-04-12T12:40:40Z,42.805,6.029,13.2986,4.59986,2470.32,2021-4-12T14:41:48Z
2021-04-12T12:43:43Z,42.805,6.029,13.2983,4.59987,2470.334,2021-4-12T14:44:51Z
2021-04-12T12:46:46Z,42.805,6.029,13.2982,4.59987,2470.343,2021-4-12T14:47:54Z
2021-04-12T12:49:49Z,42.805,6.029,13.2979,4.59988,2470.334,2021-4-12T14:50:57Z
2021-04-12T12:52:52Z,42.805,6.029,13.2979,4.59988,2470.273,2021-4-12T14:54:00Z
2021-04-12T12:55:55Z,42.805,6.029,13.2984,4.59987,2470.334,2021-4-12T14:57:04Z
2021-04-12T12:58:58Z,42.805,6.029,13.2982,4.59986,2470.273,2021-4-12T15:00:07Z
2021-04-12T13:02:01Z,42.805,6.029,13.2982,4.59986,2470.297,2021-4-12T15:03:10Z
2021-04-12T13:05:05Z,42.805,6.029,13.2984,4.59986,2470.334,2021-4-12T15:06:13Z
2021-04-12T13:08:08Z,42.805,6.029,13.2979,4.59986,2470.297,2021-4-12T15:09:16Z
2021-04-12T13:11:11Z,42.805,6.029,13.2980,4.59986,2470.297,2021-4-12T15:12:19Z
2021-04-12T13:14:14Z,42.805,6.029,13.2981,4.59986,2470.287,2021-4-12T15:15:22Z
2021-04-12T13:17:17Z,42.805,6.029,13.2979,4.59987,2470.273,2021-4-12T15:18:25Z
2021-04-12T13:20:20Z,42.805,6.029,13.2979,4.59989,2470.273,2021-4-12T15:21:29Z
2021-04-12T13:23:23Z,42.805,6.029,13.2981,4.59986,2470.273,2021-4-12T15:24:32Z
2021-04-12T13:26:26Z,42.805,6.029,13.2985,4.59987,2470.297,2021-4-12T15:27:35Z
2021-04-12T13:29:30Z,42.805,6.029,13.2982,4.59986,2470.273,2021-4-12T15:30:38Z
2021-04-12T13:32:33Z,42.805,6.029,13.2983,4.59988,2470.273,2021-4-12T15:33:41Z
2021-04-12T13:35:36Z,42.805,6.029,13.2981,4.59986,2470.25,2021-4-12T15:36:44Z
2021-04-12T13:38:39Z,42.805,6.029,13.2978,4.59986,2470.273,2021-4-12T15:39:47Z
2021-04-12T13:41:42Z,42.805,6.029,13.2987,4.59985,2470.25,2021-4-12T15:42:50Z
2021-04-12T13:44:45Z,42.805,6.029,13.2979,4.59985,2470.287,2021-4-12T15:45:54Z
2021-04-12T13:47:48Z,42.805,6.029,13.2979,4.59985,2470.25,2021-4-12T15:48:57Z
2021-04-12T13:50:51Z,42.805,6.029,13.2983,4.59985,2470.25,2021-4-12T15:52:00Z
2021-04-12T13:53:55Z,42.805,6.029,13.2982,4.59986,2470.264,2021-4-12T15:55:03Z
2021-04-12T13:56:58Z,42.805,6.029,13.2982,4.59985,2470.227,2021-4-12T15:58:06Z
2021-04-12T14:00:01Z,42.805,6.029,13.2981,4.59985,2470.227,2021-4-12T16:01:09Z
2021-04-12T14:03:04Z,42.805,6.029,13.2982,4.59985,2470.18,2021-4-12T16:04:12Z
2021-04-12T14:06:07Z,42.805,6.029,13.2983,4.59985,2470.194,2021-4-12T16:07:15Z
2021-04-12T14:09:10Z,42.805,6.029,13.2986,4.59985,2470.194,2021-4-12T16:10:19Z
2021-04-12T14:12:13Z,42.805,6.029,13.2977,4.59985,2470.156,2021-4-12T16:13:22Z
2021-04-12T14:15:16Z,42.805,6.029,13.2981,4.59986,2470.203,2021-4-12T16:16:25Z
2021-04-12T14:18:20Z,42.805,6.029,13.2983,4.59989,2470.194,2021-4-12T16:19:28Z
2021-04-12T14:21:23Z,42.805,6.029,13.2987,4.59984,2470.171,2021-4-12T16:22:31Z
2021-04-12T14:24:26Z,42.805,6.029,13.2983,4.59988,2470.156,2021-4-12T16:25:34Z
2021-04-12T14:27:29Z,42.805,6.029,13.2983,4.59985,2470.156,2021-4-12T16:28:37Z
2021-04-12T14:30:32Z,42.805,6.029,13.2982,4.59986,2470.156,2021-4-12T16:31:41Z
2021-04-12T14:33:35Z,42.805,6.029,13.2982,4.59986,2470.156,2021-4-12T16:34:44Z
2021-04-12T14:36:38Z,42.805,6.029,13.2983,4.59988,2470.147,2021-4-12T16:37:47Z
2021-04-12T14:39:42Z,42.805,6.029,13.2984,4.59988,2470.156,2021-4-12T16:40:50Z
2021-04-12T14:42:45Z,42.805,6.029,13.2982,4.59986,2470.11,2021-4-12T16:43:53Z
2021-04-12T14:45:48Z,42.805,6.029,13.2980,4.59986,2470.11,2021-4-12T16:46:56Z
2021-04-12T14:48:51Z,42.805,6.029,13.2983,4.59987,2470.087,2021-4-12T16:49:59Z
2021-04-12T14:51:54Z,42.805,6.029,13.2982,4.59986,2470.11,2021-4-12T16:53:02Z
2021-04-12T14:54:57Z,42.805,6.029,13.2981,4.59985,2470.133,2021-4-12T16:56:06Z
2021-04-12T14:58:00Z,42.805,6.029,13.2984,4.59988,2470.087,2021-4-12T16:59:09Z
2021-04-12T15:01:03Z,42.805,6.029,13.2982,4.59985,2470.063,2021-4-12T17:02:12Z
2021-04-12T15:04:07Z,42.805,6.029,13.2982,4.59985,2470.063,2021-4-12T17:05:15Z
2021-04-12T15:07:10Z,42.805,6.029,13.2987,4.59985,2470.077,2021-4-12T17:08:18Z
2021-04-12T15:10:13Z,42.805,6.029,13.2979,4.59988,2470.04,2021-4-12T17:11:21Z